• In Russia
  • List of Countries
  • For 7 days
  • Water Temperature
  • Weather Map
  • Weather Widgets
  • user-avatar
    Login

    Hourly Weather Kipungo

    Today, 29 February, Saturday

    Time Temperature Precipitation Wind Pressure Humidity
    00:00 +18°C° 0 mm 1 mps 652 mmHg 93%
    01:00 +17°C° 0 mm 2 mps 652 mmHg 93%
    02:00 +17°C° 0 mm 2 mps 651 mmHg 94%
    03:00 +16°C° 0 mm 2 mps 651 mmHg 95%
    04:00 +16°C° 0 mm 1 mps 651 mmHg 97%
    05:00 +16°C° 0 mm 1 mps 651 mmHg 95%
    06:00 +16°C° 0 mm 1 mps 652 mmHg 93%
    07:00 +18°C° 0 mm 1 mps 652 mmHg 91%
    08:00 +19°C° 0 mm 2 mps 653 mmHg 77%
    09:00 +23°C° 0 mm 2 mps 654 mmHg 63%
    10:00 +26°C° 0 mm 3 mps 655 mmHg 50%
    11:00 +27°C° 0 mm 3 mps 655 mmHg 45%
    12:00 +28°C° 0 mm 3 mps 655 mmHg 40%
    13:00 +30°C° 0 mm 3 mps 654 mmHg 35%
    14:00 +29°C° 0 mm 3 mps 654 mmHg 38%
    15:00 +29°C° 0 mm 3 mps 653 mmHg 41%
    16:00 +29°C° 0 mm 3 mps 653 mmHg 43%
    17:00 +26°C° 0 mm 3 mps 653 mmHg 51%
    18:00 +23°C° 0 mm 2 mps 653 mmHg 59%
    19:00 +20°C° 0 mm 2 mps 653 mmHg 67%
    20:00 +19°C° 0 mm 2 mps 653 mmHg 67%
    21:00 +18°C° 0 mm 2 mps 654 mmHg 68%
    22:00 +18°C° 0 mm 1 mps 654 mmHg 69%
    23:00 +17°C° 0 mm 2 mps 654 mmHg 72%

    Tomorrow, 1 March, Sunday

    Time Temperature Precipitation Wind Pressure Humidity
    00:00 +16°C° 0 mm 2 mps 653 mmHg 75%
    01:00 +16°C° 0 mm 2 mps 653 mmHg 78%
    02:00 +16°C° 0 mm 2 mps 653 mmHg 80%
    03:00 +15°C° 0 mm 2 mps 653 mmHg 82%
    04:00 +15°C° 0 mm 2 mps 653 mmHg 84%
    05:00 +15°C° 0 mm 2 mps 653 mmHg 83%
    06:00 +16°C° 0 mm 2 mps 654 mmHg 81%
    07:00 +16°C° 0 mm 2 mps 654 mmHg 79%
    08:00 +19°C° 0 mm 2 mps 655 mmHg 66%
    09:00 +23°C° 0 mm 2 mps 656 mmHg 53%
    10:00 +27°C° 0 mm 3 mps 657 mmHg 40%
    11:00 +28°C° 0 mm 3 mps 656 mmHg 37%
    12:00 +29°C° 0 mm 3 mps 656 mmHg 35%
    13:00 +30°C° 0 mm 4 mps 656 mmHg 32%
    14:00 +29°C° 0 mm 4 mps 655 mmHg 34%
    15:00 +29°C° 0 mm 4 mps 655 mmHg 35%
    16:00 +29°C° 0 mm 4 mps 654 mmHg 37%
    17:00 +26°C° 0 mm 3 mps 654 mmHg 45%
    18:00 +24°C° 0 mm 3 mps 653 mmHg 52%
    19:00 +20°C° 0 mm 2 mps 653 mmHg 60%
    20:00 +19°C° 0 mm 2 mps 654 mmHg 63%
    21:00 +18°C° 0 mm 2 mps 654 mmHg 66%
    22:00 +18°C° 0 mm 2 mps 654 mmHg 68%
    23:00 +17°C° 0 mm 2 mps 654 mmHg 70%

    Day after tomorrow, 2 March, Monday

    Time Temperature Precipitation Wind Pressure Humidity
    00:00 +17°C° 0 mm 2 mps 654 mmHg 71%
    01:00 +16°C° 0 mm 2 mps 654 mmHg 72%
    02:00 +16°C° 0 mm 2 mps 653 mmHg 71%
    03:00 +15°C° 0 mm 2 mps 653 mmHg 70%
    04:00 +15°C° 0 mm 1 mps 653 mmHg 68%
    05:00 +15°C° 0 mm 1 mps 653 mmHg 68%
    06:00 +16°C° 0 mm 1 mps 653 mmHg 67%
    07:00 +16°C° 0 mm 1 mps 654 mmHg 66%
    08:00 +20°C° 0 mm 1 mps 655 mmHg 56%
    09:00 +23°C° 0 mm 2 mps 655 mmHg 47%
    10:00 +26°C° 0 mm 2 mps 656 mmHg 37%
    11:00 +27°C° 0 mm 2 mps 656 mmHg 35%
    12:00 +29°C° 0 mm 2 mps 656 mmHg 33%
    13:00 +30°C° 0 mm 3 mps 655 mmHg 31%
    14:00 +30°C° 0 mm 2 mps 655 mmHg 33%
    15:00 +29°C° 0 mm 2 mps 654 mmHg 34%
    16:00 +29°C° 0 mm 2 mps 654 mmHg 36%
    17:00 +26°C° 0 mm 2 mps 653 mmHg 44%
    18:00 +24°C° 0 mm 1 mps 653 mmHg 52%
    19:00 +21°C° 0 mm 1 mps 652 mmHg 60%
    20:00 +20°C° 0 mm 1 mps 652 mmHg 59%
    21:00 +20°C° 0 mm 1 mps 653 mmHg 59%
    22:00 +19°C° 0 mm 1 mps 653 mmHg 58%
    23:00 +18°C° 0 mm 2 mps 653 mmHg 57%

    3 March, Tuesday

    Time Temperature Precipitation Wind Pressure Humidity
    00:00 +17°C° 0 mm 2 mps 653 mmHg 56%
    01:00 +17°C° 0 mm 2 mps 653 mmHg 54%
    02:00 +17°C° 0 mm 2 mps 653 mmHg 53%
    03:00 +17°C° 0 mm 2 mps 652 mmHg 51%
    04:00 +16°C° 0 mm 2 mps 652 mmHg 50%
    05:00 +17°C° 0 mm 2 mps 653 mmHg 51%
    06:00 +18°C° 0 mm 1 mps 653 mmHg 52%
    07:00 +19°C° 0 mm 1 mps 654 mmHg 53%
    08:00 +21°C° 0 mm 1 mps 654 mmHg 51%
    09:00 +23°C° 0 mm 1 mps 655 mmHg 49%
    10:00 +25°C° 0 mm 1 mps 655 mmHg 47%
    11:00 +27°C° 0 mm 2 mps 655 mmHg 44%
    12:00 +29°C° 0 mm 2 mps 655 mmHg 40%
    13:00 +30°C° 0 mm 2 mps 655 mmHg 37%
    14:00 +30°C° 0 mm 2 mps 654 mmHg 38%
    15:00 +30°C° 0 mm 2 mps 654 mmHg 38%
    16:00 +30°C° 0 mm 2 mps 653 mmHg 39%
    17:00 +27°C° 0 mm 2 mps 653 mmHg 47%
    18:00 +25°C° 0 mm 2 mps 653 mmHg 55%
    19:00 +22°C° 0 mm 1 mps 652 mmHg 63%
    20:00 +21°C° 0 mm 1 mps 653 mmHg 61%
    21:00 +20°C° 0 mm 1 mps 653 mmHg 60%
    22:00 +19°C° 0 mm 1 mps 653 mmHg 58%
    23:00 +19°C° 0 mm 1 mps 653 mmHg 57%

    4 March, Wednesday

    Time Temperature Precipitation Wind Pressure Humidity
    00:00 +18°C° 0 mm 1 mps 653 mmHg 56%
    01:00 +18°C° 0 mm 1 mps 653 mmHg 54%
    02:00 +18°C° 0 mm 1 mps 653 mmHg 53%
    03:00 +18°C° 0 mm 1 mps 653 mmHg 52%
    04:00 +18°C° 0 mm 1 mps 652 mmHg 51%
    05:00 +19°C° 0 mm 1 mps 653 mmHg 54%
    06:00 +17°C° 0 mm 0 mps 653 mmHg 56%
    07:00 +17°C° 0 mm 0 mps 654 mmHg 58%
    08:00 +22°C° 0 mm 1 mps 654 mmHg 53%
    09:00 +25°C° 0 mm 1 mps 655 mmHg 48%
    10:00 +28°C° 0 mm 1 mps 656 mmHg 43%
    11:00 +29°C° 0 mm 1 mps 656 mmHg 43%
    12:00 +31°C° 0 mm 1 mps 656 mmHg 42%
    13:00 +33°C° 0 mm 1 mps 655 mmHg 42%
    14:00 +31°C° 0 mm 1 mps 655 mmHg 46%
    15:00 +30°C° 0 mm 1 mps 654 mmHg 49%
    16:00 +29°C° 0 mm 2 mps 653 mmHg 53%
    17:00 +26°C° 0.4 mm 2 mps 653 mmHg 61%
    18:00 +24°C° 0.4 mm 2 mps 652 mmHg 69%
    19:00 +20°C° 0.4 mm 2 mps 652 mmHg 76%
    20:00 +19°C° 0.4 mm 2 mps 653 mmHg 79%
    21:00 +19°C° 0.4 mm 2 mps 653 mmHg 81%
    22:00 +18°C° 0.4 mm 2 mps 653 mmHg 83%
    23:00 +18°C° 1 mm 2 mps 653 mmHg 86%

    5 March, Thursday

    Time Temperature Precipitation Wind Pressure Humidity
    00:00 +18°C° 1 mm 1 mps 653 mmHg 89%
    01:00 +18°C° 1 mm 1 mps 652 mmHg 91%
    02:00 +18°C° 0.3 mm 1 mps 652 mmHg 91%
    03:00 +18°C° 0.3 mm 1 mps 652 mmHg 91%
    04:00 +18°C° 0.3 mm 1 mps 652 mmHg 90%
    05:00 +18°C° 0.4 mm 1 mps 652 mmHg 91%
    06:00 +19°C° 0.4 mm 1 mps 652 mmHg 91%
    07:00 +17°C° 0.4 mm 0 mps 653 mmHg 92%
    08:00 +18°C° 0.2 mm 0 mps 653 mmHg 89%
    09:00 +20°C° 0.2 mm 0 mps 654 mmHg 86%
    10:00 +23°C° 0.2 mm 1 mps 654 mmHg 83%
    11:00 +23°C° 0.2 mm 0 mps 654 mmHg 75%
    12:00 +26°C° 0.2 mm 0 mps 654 mmHg 68%
    13:00 +28°C° 0.2 mm 0 mps 654 mmHg 61%
    14:00 +28°C° 2.6 mm 1 mps 653 mmHg 68%
    15:00 +27°C° 2.6 mm 1 mps 652 mmHg 75%
    16:00 +25°C° 2.6 mm 1 mps 651 mmHg 83%
    17:00 +24°C° 1.8 mm 1 mps 651 mmHg 86%
    18:00 +23°C° 1.8 mm 1 mps 651 mmHg 89%
    19:00 +21°C° 1.8 mm 1 mps 651 mmHg 92%
    20:00 +21°C° 2.8 mm 1 mps 652 mmHg 94%
    21:00 +21°C° 2.8 mm 1 mps 652 mmHg 95%
    22:00 +20°C° 2.8 mm 1 mps 653 mmHg 96%
    23:00 +20°C° 1.7 mm 1 mps 653 mmHg 96%
    Show more